Probability
0 0 0 0 0 0 0 0 1 2 2 2 2 2 6 9 7 6 7 6 4 2 2 2 3 4 4 4 5 4 3 1 0 0 0 0 0 0 0 0 0 0 0
0 0 0 0 0 0 0 0 0 1 1 1 1 1 4 6 4 4 5 4 3 2 2 2 3 3 3 3 3 3 3 2 1 0 0 0 0 0 0 0 0 0 0
0 0 0 0 0 0 0 0 0 0 0 0 0 0 1 2 1 1 2 1 1 2 1 1 1 1 1 2 1 1 3 2 1 0 0 0 0 0 0 0 0 0 0
0 0 0 0 0 0 0 0 0 0 0 0 0 0 0 0 0 0 0 0 0 0 0 0 0 0 0 1 1 1 2 2 1 0 0 0 0 0 0 0 0 0 0
0 0 0 0 0 0 0 0 0 0 0 0 0 0 0 0 0 0 0 0 0 0 0 0 0 0 0 0 0 1 2 2 1 0 0 0 0 0 0 0 0 0 0
0 0 0 0 0 0 0 0 0 0 0 0 0 0 0 0 0 0 0 0 0 0 0 0 0 0 0 0 0 0 1 1 1 0 0 0 0 0 0 0 0 0 0
0 0 0 0 0 0 0 0 0 0 0 0 0 0 0 0 0 0 0 0 0 0 0 0 0 0 0 0 0 0 0 0 0 0 0 0 0 0 0 0 0 0 0
0 0 0 0 0 0 0 0 0 0 0 0 0 0 0 0 0 0 0 0 0 0 0 0 0 0 0 0 0 0 0 0 0 0 0 0 0 0 0 0 0 0 0
0 0 0 0 0 0 0 0 0 0 0 0 0 0 0 0 0 0 0 0 0 0 0 0 0 0 0 0 0 0 0 0 0 0 0 0 0 0 0 0 0 0 0
0 0 0 0 0 0 0 0 0 0 0 0 0 0 0 0 0 0 0 0 0 0 0 0 0 0 0 0 0 0 0 0 0 0 0 0 0 0 0 0 0 0 0
0 0 0 0 0 0 0 0 0 0 0 0 0 0 0 0 0 0 0 0 0 0 0 0 0 0 0 0 0 0 0 0 0 0 0 0 0 0 0 0 0 0 0
0 0 0 0 0 0 0 0 0 0 0 0 0 0 0 0 0 0 0 0 0 0 0 0 0 0 0 0 0 0 0 0 0 0 0 0 0 0 0 0 0 0 0
0 0 0 0 0 0 0 0 0 0 0 0 0 0 0 0 0 0 0 0 0 0 0 0 0 0 0 0 0 0 0 0 0 0 0 0 0 0 0 0 0 0 0
0 0 0 0 0 0 0 0 0 0 0 0 0 0 0 0 0 0 0 0 0 0 0 0 0 0 0 0 0 0 0 0 0 0 0 0 0 0 0 0 0 0 0
0 0 0 0 0 0 0 0 0 0 0 0 0 0 0 0 0 0 0 0 0 0 0 0 0 0 0 0 0 0 0 0 0 0 0 0 0 0 0 0 0 0 0
0 0 0 0 0 0 0 0 0 0 0 0 0 0 0 0 0 0 0 0 0 0 0 0 0 0 0 0 0 0 0 0 0 0 0 0 0 0 0 0 0 0 0
0 0 0 0 0 0 0 0 0 0 0 0 0 0 0 0 0 0 0 0 0 0 0 0 0 0 0 0 0 0 0 0 0 0 0 0 0 0 0 0 0 0 0
0 0 0 0 0 0 0 0 0 0 0 0 0 0 0 0 0 0 0 0 0 0 0 0 0 0 0 0 0 0 0 0 0 0 0 0 0 0 0 0 0 0 0
0 0 0 0 0 0 0 0 0 0 0 0 0 0 0 0 0 0 0 0 0 0 0 0 0 0 0 0 0 0 0 0 0 0 0 0 0 0 0 0 0 0 0
0 0 0 0 0 0 0 0 0 0 0 0 0 0 0 0 0 0 0 0 0 0 0 0 0 0 0 0 0 0 0 0 0 0 0 0 0 0 0 0 0 0 0
0 0 0 0 0 0 0 0 0 0 0 0 0 0 0 0 0 0 0 0 0 0 0 0 0 0 0 0 0 0 0 0 0 0 0 0 0 0 0 0 0 0 0
0 0 0 0 0 0 0 0 0 0 0 0 0 0 0 0 0 0 0 0 0 0 0 0 0 0 0 0 0 0 0 0 0 0 0 0 0 0 0 0 0 0 0
0 0 0 0 0 0 0 0 0 0 0 0 0 0 0 0 0 0 0 0 0 0 0 0 0 0 0 0 0 0 0 0 0 0 0 0 0 0 0 0 0 0 0
0 0 0 0 0 0 0 0 0 0 0 0 0 0 0 0 0 0 0 0 0 0 0 0 0 0 0 0 0 0 0 0 0 0 0 0 0 0 0 0 0 0 0
0 0 0 0 0 0 0 0 0 0 0 0 0 0 0 0 0 0 0 0 0 0 0 0 0 0 0 0 0 0 0 0 0 0 0 0 0 0 0 0 0 0 0
0 0 0 0 0 0 0 0 0 0 0 0 0 0 0 0 0 0 0 0 0 0 0 0 0 0 0 0 0 0 0 0 0 0 0 0 0 0 0 0 0 0 0
Wind_Speed
6 6 6 6 6 6 5 6 6 6 6 6 5 5 4 3 2 1 1 1 3 3 4 5 5 5 4 4 4 3 3 3 3 1 1 2 2 2 2 2 4 5 4
6 6 6 7 7 7 7 7 6 6 6 6 6 5 6 5 4 2 1 1 2 3 3 4 5 5 5 4 4 4 3 3 3 3 2 2 2 2 2 2 3 5 5
6 6 7 7 7 7 7 7 7 7 7 7 7 7 6 6 5 4 3 2 2 2 3 4 5 6 5 4 4 4 3 3 3 3 3 2 2 2 2 2 4 4 6
5 6 7 7 7 7 7 7 8 8 8 8 8 8 7 7 7 6 4 2 2 2 2 3 4 5 5 5 4 4 4 4 3 3 3 2 2 2 3 3 3 3 4
5 6 6 6 7 7 7 7 7 8 9 7 8 8 7 6 7 7 5 3 3 3 4 4 4 6 6 4 3 4 4 4 4 3 3 3 2 3 3 3 4 5 4
5 5 5 6 6 7 7 7 7 7 7 7 7 7 7 7 10 10 7 3 3 3 4 4 5 5 6 6 6 5 5 5 4 4 3 3 3 3 3 4 5 5 3
5 5 5 6 6 6 7 7 7 6 6 6 6 6 6 8 12 12 10 3 3 4 4 3 4 5 6 5 6 7 6 4 4 4 4 4 4 4 4 4 4 4 4
5 5 5 5 6 6 5 6 6 5 5 5 6 6 5 9 13 12 10 4 3 4 4 4 4 5 4 4 5 6 7 6 4 4 5 5 4 3 4 5 7 7 6
5 5 5 5 5 6 6 5 4 4 4 4 5 5 6 7 13 12 9 3 4 5 6 6 5 5 6 5 6 7 7 6 10 12 11 10 10 9 6 5 6 6 5
5 5 5 4 4 5 5 5 4 3 4 3 4 5 6 6 12 13 11 3 4 4 5 6 9 7 6 5 5 6 7 5 6 6 6 6 6 6 6 5 4 6 5
4 3 4 4 4 4 4 4 4 4 4 4 4 4 5 7 10 13 11 4 3 4 4 4 4 8 7 6 5 5 6 5 4 5 4 4 4 4 4 5 4 4 4
2 2 2 3 4 4 3 4 4 5 5 5 4 4 4 5 8 10 12 10 7 5 4 3 3 7 8 8 6 6 7 6 4 4 4 4 4 4 4 5 6 6 6
1 1 1 2 2 3 4 5 5 5 4 4 4 4 4 4 6 12 10 10 10 5 4 5 5 6 6 6 7 7 5 4 4 5 5 4 4 4 5 5 6 7 8
1 1 0 2 3 3 3 3 4 4 5 5 5 5 4 5 6 6 5 4 5 4 3 5 6 7 6 5 4 4 4 4 5 5 4 4 3 3 3 3 4 4 5
3 2 2 3 2 2 3 2 3 3 2 2 3 4 4 4 5 8 4 3 3 3 2 2 3 2 3 3 3 3 3 4 4 3 4 4 3 3 2 2 3 4 4
1 2 1 2 2 1 2 3 3 2 3 3 4 3 3 4 5 7 7 7 6 5 3 3 3 3 3 2 3 3 3 3 3 3 4 3 3 3 2 2 2 3 4
2 2 2 1 1 1 2 2 3 2 0 1 2 3 3 3 5 6 7 7 5 4 3 3 3 2 2 2 3 3 3 3 3 3 3 3 3 3 3 2 2 3 4
2 1 2 2 1 1 1 1 2 3 3 2 2 2 1 1 3 4 5 5 2 2 2 2 2 2 2 3 3 3 2 2 2 3 3 3 2 3 3 2 3 3 3
3 2 3 2 2 2 2 1 1 2 2 3 3 2 4 3 3 4 4 1 1 2 2 2 2 2 2 3 2 2 2 2 2 3 3 2 2 2 2 3 4 4 2
2 2 2 2 2 3 3 3 2 2 2 2 3 4 3 2 2 2 1 0 2 2 2 2 2 2 2 2 2 1 2 2 2 2 3 2 2 2 3 4 4 3 2
4 5 6 3 3 3 3 3 3 3 3 3 3 4 4 1 1 2 2 1 1 2 2 3 2 2 2 1 1 1 1 2 2 2 3 2 2 2 2 2 3 2 3
4 4 5 5 4 4 3 3 3 3 3 3 4 4 5 2 2 3 3 3 2 2 2 2 2 2 2 1 1 1 1 2 3 3 3 3 2 2 2 2 2 2 2
3 3 4 5 4 5 4 3 3 3 3 4 5 6 5 4 4 3 3 4 4 3 3 2 2 3 2 1 1 0 0 1 2 3 3 3 3 2 2 2 2 2 2
5 5 4 4 4 4 4 4 4 4 4 4 4 5 6 6 5 5 4 4 4 4 4 3 3 4 6 4 2 1 1 2 3 2 2 2 2 2 2 2 2 2 2
6 5 5 4 4 4 4 4 4 4 4 4 4 4 5 5 5 5 5 5 6 5 6 5 4 4 5 7 5 4 6 6 5 3 2 1 0 1 1 2 2 2 2
6 5 5 4 4 4 4 4 4 4 4 4 4 4 5 5 5 5 5 5 5 5 6 5 7 7 7 6 7 10 11 8 6 4 2 1 1 2 2 1 2 2 2
Wind_Direction
1 357 357 4 3 8 10 7 5 7 15 22 24 22 24 21 23 95 163 168 186 187 183 181 183 174 166 164 158 159 162 155 164 174 170 161 162 148 146 145 135 128 132
5 5 11 18 17 19 20 16 11 16 17 21 25 28 29 24 24 29 72 148 167 180 179 166 166 160 156 155 159 164 160 158 159 163 166 146 137 134 139 130 123 123 118
14 11 16 21 20 21 20 18 17 21 23 24 30 30 30 25 26 25 33 60 105 140 155 153 154 148 146 148 154 157 157 161 152 148 154 140 136 136 117 107 110 115 121
30 22 18 20 20 21 20 21 21 21 27 27 29 26 27 28 25 16 19 44 81 85 95 121 134 142 147 148 155 159 155 150 143 144 143 140 135 135 122 126 117 112 117
39 30 19 20 19 20 22 25 27 25 28 26 28 26 22 24 20 11 4 32 69 83 84 93 103 113 119 132 148 157 155 150 146 146 145 134 141 141 150 147 129 112 98
46 36 22 23 20 19 21 22 25 26 24 25 26 25 25 20 11 17 13 21 64 83 95 100 108 104 106 109 116 128 141 151 158 154 151 151 161 153 147 139 136 130 112
45 43 32 27 25 25 22 21 22 24 19 18 21 23 25 17 16 17 10 20 71 78 83 99 112 110 105 110 107 100 84 85 141 149 145 150 145 155 142 133 134 124 121
37 41 41 33 23 20 23 24 21 17 13 14 18 18 20 22 20 16 8 36 67 82 81 76 88 93 95 111 108 88 71 51 73 105 102 96 94 106 123 131 126 110 101
37 36 43 37 26 17 17 19 15 8 9 19 19 21 23 21 21 19 15 44 63 70 71 67 72 76 66 84 103 101 94 79 73 86 96 98 90 83 96 108 118 122 119
42 35 40 44 38 24 13 7 6 9 8 23 29 32 32 28 27 26 22 52 67 74 69 69 61 58 61 79 116 114 110 109 109 100 93 97 94 89 93 111 127 133 129
54 40 36 35 53 46 10 358 7 11 13 25 34 42 46 40 32 31 32 46 60 74 70 61 49 50 60 70 94 110 129 133 124 116 109 95 80 72 73 80 90 117 122
77 58 57 51 35 38 22 8 15 14 17 25 28 33 42 43 35 29 38 45 52 70 71 64 60 61 64 66 77 92 107 109 101 94 88 83 78 69 67 69 70 71 80
107 92 95 101 90 46 27 22 18 16 17 19 21 25 31 39 30 27 38 51 54 64 69 77 75 78 78 72 70 75 87 96 99 97 94 89 88 89 79 71 64 63 58
176 190 141 84 76 75 44 30 38 23 16 13 16 15 20 37 23 9 10 43 58 63 70 73 67 66 75 81 76 70 73 94 108 109 107 100 92 86 92 106 106 95 76
203 180 144 115 100 95 93 49 49 73 58 26 8 9 19 21 6 2 12 22 27 33 33 64 67 63 58 58 72 79 80 86 90 100 106 108 105 98 89 87 110 113 109
235 118 114 136 144 151 148 133 58 82 102 74 52 39 66 44 6 13 22 27 25 13 39 74 74 73 76 76 82 82 79 86 95 102 108 118 124 126 120 103 96 112 123
267 164 148 144 156 198 188 172 168 174 159 13 22 49 59 27 15 10 10 3 353 0 63 78 78 77 78 81 79 85 87 88 97 106 115 121 125 125 125 121 111 108 116
254 152 155 172 215 245 238 208 162 165 175 191 214 229 235 348 350 346 349 350 10 59 80 92 89 81 81 84 86 88 89 83 91 106 110 113 115 119 124 128 119 118 125
227 187 178 188 205 234 232 213 209 183 168 157 152 182 223 243 282 300 321 330 95 91 83 85 88 86 84 84 82 89 99 100 95 96 99 99 110 117 118 113 111 109 115
215 171 174 201 226 226 220 216 211 202 185 170 160 159 177 204 221 213 225 50 102 113 109 100 81 78 87 89 80 71 98 105 102 104 114 103 91 108 125 131 143 156 172
207 186 188 211 240 239 226 218 209 200 195 174 145 139 153 214 205 159 159 155 134 139 136 132 129 113 103 115 136 204 163 149 147 135 130 131 126 118 126 139 146 151 144
215 187 183 202 219 228 229 224 216 206 197 171 154 161 170 209 239 196 177 173 165 147 139 144 162 157 147 156 213 220 198 164 151 147 143 142 139 139 134 135 145 144 140
228 230 204 203 207 208 214 232 231 220 213 198 172 164 177 206 217 201 187 174 164 164 157 157 176 161 164 195 219 59 86 178 155 145 144 147 155 166 167 172 171 165 172
214 227 225 216 210 203 202 215 223 218 211 204 190 178 181 192 197 194 187 173 166 171 171 177 198 196 182 174 175 138 66 62 67 86 102 131 159 173 164 158 170 193 175
206 216 216 216 217 210 208 216 225 222 209 201 199 195 188 183 186 187 182 174 171 179 185 183 189 202 195 180 175 154 132 114 94 44 58 81 139 151 145 164 181 200 186
202 212 213 209 214 215 211 215 223 227 220 207 199 197 192 188 185 184 179 175 177 184 187 187 191 193 198 198 190 167 161 159 150 128 69 7 233 199 181 196 214 209 208